"Pseudo-MPEC" for P21OuZG

Created 2023 Nov 23 13:22:16 UT using Find_Orb

Click here for an explanation of pseudo-MPECs

 
 Astrometry: 
     P21OuZG* C2023 11 200;1=AstrometryJ!Kpt?_+vaM;lrgYS2/:Q`0ilxSl9dc=?4hm.'F52
     P21OuZG  C2023 11 20S^hSZyAmredacted;Rclick-F^1'b/Z/xr?raa?oherehrS0y-DRF52
     P21OuZG  C2023 11 20N8^5n_Mfor1pUM%i\'explanationB/:pYe^,ro_%97-QuvFZJ1*F52
     P21OuZG KC2023 11 21.29515004 34 54.725-19 26 08.88   ~BL7b 22.63GVNEOCPI52
     P21OuZG KC2023 11 21.30124004 34 54.336-19 26 15.61   ~BL7b 21.54GVNEOCPI52
     P21OuZG KC2023 11 21.30427904 34 54.095-19 26 18.60   ~BL7b 21.67GVNEOCPI52
     P21OuZG KC2023 11 23.36270604 32 44.020-20 02 51.76   ~BNA7 21.69GVNEOCPI52
     P21OuZG KC2023 11 23.37301404 32 43.318-20 03 01.30   ~BNA7 21.81GVNEOCPI52
     P21OuZG KC2023 11 23.39789504 32 41.622-20 03 25.74   ~BNA7 21.15GVNEOCPI52
     P21OuZG KC2023 11 23.40563704 32 41.143-20 03 33.77   ~BNA7 20.82GVNEOCPI52

Station data:
(F52) Pan-STARRS 2, Haleakala  (N20.707382 W156.255910)  US/Hawaii.
   Observers J. Bulger, T. Dukes, T. Lowe, A. Schultz, M. Willman. Measurers
   K. Chambers, S. Chastel, T. de Boer, L. Denneau, J. Fairlamb, H.
   Flewelling, M. Huber, C.-C. Lin, E. Magnier, Y. Ramanjooloo, R. Wainscoat,
   R. Weryk. 1.8-m Ritchey-Chrétien + CCD.
(I52) Steward Observatory, Mt. Lemmon Station  (N32.442544 W110.788920)
   US/Arizona.  Observers T. A. Pruyne, B. M. Africano, E. J. Christensen, G.
   A. Farneth, D. C. Fuls, A. R. Gibbs, A. D. Grauer, H. Gröller, J. A.
   Johnson, R. A. Kowalski, S. M. Larson, G. J. Leonard, D. Rankin, R. L.
   Seaman, F. C. Shelly, K. W. Wierzchoś. 1.0-m prime focus + CCD.

Orbital elements:  P21OuZG
   Perihelion 2023 Aug 5.55830 +/- 6.63 TT = 13:23:56 (JD 2460162.05830)
Epoch 2023 Nov 23.0 TT = JDT 2460271.5   Earth MOID: 0.6930      AutoNEOCP
M  41.61851296 +/- 1.8              (J2000 ecliptic)
n   0.38028020 +/- 0.00684          Peri.  178.61284 +/- 3.6
a   1.88683346 +/- 0.0226           Node   195.26246 +/- 0.6
e   0.1030435 +/- 0.012             Incl.   26.26620 +/- 0.47
P   2.59/946.65d           H 19.73  G  0.15   U  9.4
q 1.69240743 +/- 0.0109    Q 2.08125950 +/- 0.046
From 10 observations 2023 Nov. 20-23; mean residual 0".33
Residuals in arcseconds: 
231120 F52  .10-  .23+    231121 I52  .25+  .08-    231123 I52  .34-  .65+    
231120 F52  .07+  .12-    231121 I52  .32-  .31+    231123 I52  .23+  .43+    
231120 F52  .03+  .12-    231123 I52  .11+  1.0-    
231121 I52  .06+  .13-    231123 I52  .00   .10-    

Ephemerides (geocentric):
Date (UTC) HH   RA             Dec           delta  r     elong  mag " sig PA
---- --------  ------------   ------------  ------ ------ -----  --- --------
2023 11 23 13  04 32 32.739   -20 05 44.76  .88536 1.7520 138.5 21.7 .264 164
2023 11 23 14  04 32 30.080   -20 06 26.88  .88546 1.7520 138.5 21.7 .287 162
2023 11 23 15  04 32 27.421   -20 07 08.93  .88556 1.7520 138.5 21.7 .311 160
2023 11 23 16  04 32 24.760   -20 07 50.90  .88566 1.7521 138.5 21.7 .336 158
2023 11 23 17  04 32 22.099   -20 08 32.79  .88576 1.7521 138.5 21.7 .362 156
2023 11 23 18  04 32 19.436   -20 09 14.61  .88587 1.7522 138.5 21.7 .389 155
2023 11 23 19  04 32 16.773   -20 09 56.35  .88597 1.7522 138.5 21.7 .416 154
2023 11 23 20  04 32 14.109   -20 10 38.01  .88607 1.7522 138.5 21.7 .444 153
2023 11 23 21  04 32 11.445   -20 11 19.60  .88618 1.7523 138.5 21.7 .473 152
2023 11 23 22  04 32 08.779   -20 12 01.11  .88628 1.7523 138.5 21.7 .503 151
2023 11 23 23  04 32 06.113   -20 12 42.54  .88638 1.7524 138.5 21.7 .533 150
2023 11 24 00  04 32 03.446   -20 13 23.90  .88649 1.7524 138.4 21.7 .564 150
2023 11 24 01  04 32 00.778   -20 14 05.18  .88659 1.7525 138.4 21.7 .596 149
2023 11 24 02  04 31 58.109   -20 14 46.38  .88669 1.7525 138.4 21.7 .628 148
2023 11 24 03  04 31 55.439   -20 15 27.50  .88680 1.7525 138.4 21.7 .662 148
2023 11 24 04  04 31 52.769   -20 16 08.55  .88690 1.7526 138.4 21.7 .695 147
2023 11 24 05  04 31 50.098   -20 16 49.52  .88701 1.7526 138.4 21.7 .730 147
2023 11 24 06  04 31 47.427   -20 17 30.41  .88712 1.7527 138.4 21.7 .765 147
2023 11 24 07  04 31 44.754   -20 18 11.22  .88722 1.7527 138.4 21.7 .801 146
2023 11 24 08  04 31 42.081   -20 18 51.96  .88733 1.7528 138.4 21.7 .837 146
2023 11 24 09  04 31 39.407   -20 19 32.62  .88743 1.7528 138.4 21.7 .875 146
2023 11 24 10  04 31 36.733   -20 20 13.20  .88754 1.7528 138.4 21.7 .912 145
2023 11 24 11  04 31 34.057   -20 20 53.71  .88765 1.7529 138.4 21.7 .951 145
2023 11 24 12  04 31 31.381   -20 21 34.14  .88776 1.7529 138.3 21.7 0.99 145
2023 11 24 13  04 31 28.705   -20 22 14.49  .88786 1.7530 138.3 21.7 1.03 145
2023 11 24 14  04 31 26.027   -20 22 54.76  .88797 1.7530 138.3 21.7 1.07 144
2023 11 24 15  04 31 23.349   -20 23 34.96  .88808 1.7530 138.3 21.7 1.11 144
2023 11 24 16  04 31 20.671   -20 24 15.07  .88819 1.7531 138.3 21.8 1.15 144
2023 11 24 17  04 31 17.991   -20 24 55.11  .88830 1.7531 138.3 21.8 1.20 144
2023 11 24 18  04 31 15.311   -20 25 35.08  .88841 1.7532 138.3 21.8 1.24 144
2023 11 24 19  04 31 12.631   -20 26 14.96  .88852 1.7532 138.3 21.8 1.28 143
2023 11 24 20  04 31 09.950   -20 26 54.77  .88863 1.7533 138.3 21.8 1.33 143
2023 11 24 21  04 31 07.268   -20 27 34.50  .88874 1.7533 138.3 21.8 1.37 143
2023 11 24 22  04 31 04.585   -20 28 14.15  .88885 1.7533 138.3 21.8 1.42 143
2023 11 24 23  04 31 01.902   -20 28 53.73  .88896 1.7534 138.2 21.8 1.46 143
2023 11 25 00  04 30 59.219   -20 29 33.22  .88907 1.7534 138.2 21.8 1.51 143
2023 11 25 01  04 30 56.535   -20 30 12.64  .88918 1.7535 138.2 21.8 1.56 143
2023 11 25 02  04 30 53.850   -20 30 51.98  .88929 1.7535 138.2 21.8 1.61 143
2023 11 25 03  04 30 51.165   -20 31 31.24  .88941 1.7536 138.2 21.8 1.65 143
2023 11 25 04  04 30 48.479   -20 32 10.43  .88952 1.7536 138.2 21.8 1.70 142
2023 11 25 05  04 30 45.792   -20 32 49.53  .88963 1.7536 138.2 21.8 1.75 142
2023 11 25 06  04 30 43.105   -20 33 28.56  .88974 1.7537 138.2 21.8 1.80 142
2023 11 25 07  04 30 40.418   -20 34 07.51  .88986 1.7537 138.2 21.8 1.86 142
2023 11 25 08  04 30 37.730   -20 34 46.39  .88997 1.7538 138.2 21.8 1.91 142
2023 11 25 09  04 30 35.041   -20 35 25.18  .89008 1.7538 138.2 21.8 1.96 142
2023 11 25 10  04 30 32.352   -20 36 03.90  .89020 1.7538 138.1 21.8 2.01 142
2023 11 25 11  04 30 29.663   -20 36 42.54  .89031 1.7539 138.1 21.8 2.07 142
2023 11 25 12  04 30 26.973   -20 37 21.10  .89043 1.7539 138.1 21.8 2.12 142